Time,TemperatureF,DewpointF,PressureIn,WindDirection,WindDirectionDegrees,WindSpeedMPH,WindSpeedGustMPH,Humidity,HourlyPrecipIn,Conditions,Clouds,dailyrainin,SoftwareType,DateUTC
2013-01-26 00:00:00,25.1,22.0,30.31,NNW,333,0.0,-999.0,89,-99.99,,,0.00,weatherlink.com 1.10,2013-01-26 05:00:00,
2013-01-26 00:15:00,24.8,22.0,30.31,NNW,333,0.0,-999.0,89,-99.99,,,0.00,weatherlink.com 1.10,2013-01-26 05:15:00,
2013-01-26 00:31:00,24.2,22.0,30.30,NNW,333,0.0,-999.0,89,-99.99,,,0.00,weatherlink.com 1.10,2013-01-26 05:31:00,
2013-01-26 00:45:00,23.6,21.0,30.31,NNW,333,0.0,-999.0,89,-99.99,,,0.00,weatherlink.com 1.10,2013-01-26 05:45:00,
2013-01-26 01:00:00,22.8,20.0,30.31,NNW,333,0.0,-999.0,89,-99.99,,,0.00,weatherlink.com 1.10,2013-01-26 06:00:00,
2013-01-26 01:15:00,22.3,20.0,30.31,NNW,333,0.0,-999.0,90,-99.99,,,0.00,weatherlink.com 1.10,2013-01-26 06:15:00,
2013-01-26 01:31:00,21.8,19.0,30.31,NNW,333,0.0,-999.0,90,-99.99,,,0.00,weatherlink.com 1.10,2013-01-26 06:31:00,
2013-01-26 01:46:00,21.3,19.0,30.31,NNW,333,0.0,-999.0,90,-99.99,,,0.00,weatherlink.com 1.10,2013-01-26 06:46:00,
2013-01-26 02:01:00,20.9,19.0,30.31,NNW,333,0.0,-999.0,90,-99.99,,,0.00,weatherlink.com 1.10,2013-01-26 07:01:00,
2013-01-26 02:16:00,20.6,18.0,30.31,NNW,333,0.0,-999.0,90,-99.99,,,0.00,weatherlink.com 1.10,2013-01-26 07:16:00,
2013-01-26 02:31:00,20.5,18.0,30.30,NNW,333,0.0,-999.0,91,-99.99,,,0.00,weatherlink.com 1.10,2013-01-26 07:31:00,
2013-01-26 02:46:00,20.4,18.0,30.31,NNW,333,0.0,-999.0,91,-99.99,,,0.00,weatherlink.com 1.10,2013-01-26 07:46:00,
2013-01-26 03:01:00,20.4,18.0,30.31,NNW,333,0.0,-999.0,91,-99.99,,,0.00,weatherlink.com 1.10,2013-01-26 08:01:00,
2013-01-26 03:16:00,20.3,18.0,30.31,NNW,342,2.0,-999.0,91,-99.99,,,0.00,weatherlink.com 1.10,2013-01-26 08:16:00,
2013-01-26 03:31:00,20.3,18.0,30.31,North,351,1.0,-999.0,91,-99.99,,,0.00,weatherlink.com 1.10,2013-01-26 08:31:00,
2013-01-26 03:46:00,20.3,18.0,30.31,North,351,0.0,-999.0,91,-99.99,,,0.00,weatherlink.com 1.10,2013-01-26 08:46:00,
2013-01-26 04:01:00,20.0,18.0,30.31,North,351,0.0,-999.0,91,-99.99,,,0.00,weatherlink.com 1.10,2013-01-26 09:01:00,
2013-01-26 04:16:00,19.8,18.0,30.30,North,351,0.0,-999.0,91,-99.99,,,0.00,weatherlink.com 1.10,2013-01-26 09:16:00,
2013-01-26 04:31:00,19.7,18.0,30.30,North,351,0.0,-999.0,91,-99.99,,,0.00,weatherlink.com 1.10,2013-01-26 09:31:00,
2013-01-26 04:46:00,19.5,17.0,30.30,North,351,0.0,-999.0,91,-99.99,,,0.00,weatherlink.com 1.10,2013-01-26 09:46:00,
2013-01-26 05:01:00,19.3,17.0,30.31,North,351,0.0,-999.0,91,-99.99,,,0.00,weatherlink.com 1.10,2013-01-26 10:01:00,
2013-01-26 05:16:00,19.2,17.0,30.31,North,351,0.0,-999.0,91,-99.99,,,0.00,weatherlink.com 1.10,2013-01-26 10:16:00,
2013-01-26 05:31:00,19.1,17.0,30.32,North,351,1.0,-999.0,91,-99.99,,,0.00,weatherlink.com 1.10,2013-01-26 10:31:00,
2013-01-26 05:46:00,19.0,17.0,30.33,North,351,0.0,-999.0,91,-99.99,,,0.00,weatherlink.com 1.10,2013-01-26 10:46:00,
2013-01-26 06:01:00,18.9,17.0,30.33,North,351,0.0,-999.0,91,-99.99,,,0.00,weatherlink.com 1.10,2013-01-26 11:01:00,
2013-01-26 06:16:00,18.8,17.0,30.33,North,351,0.0,-999.0,91,-99.99,,,0.00,weatherlink.com 1.10,2013-01-26 11:16:00,
2013-01-26 06:31:00,18.8,17.0,30.34,North,351,0.0,-999.0,91,-99.99,,,0.00,weatherlink.com 1.10,2013-01-26 11:31:00,
2013-01-26 06:46:00,18.8,17.0,30.35,North,351,0.0,-999.0,91,-99.99,,,0.00,weatherlink.com 1.10,2013-01-26 11:46:00,
2013-01-26 07:01:00,18.6,16.0,30.36,North,351,0.0,-999.0,91,-99.99,,,0.00,weatherlink.com 1.10,2013-01-26 12:01:00,
2013-01-26 07:16:00,18.6,16.0,30.36,North,351,0.0,-999.0,91,-99.99,,,0.00,weatherlink.com 1.10,2013-01-26 12:16:00,
2013-01-26 07:31:00,18.6,16.0,30.38,North,351,0.0,-999.0,91,-99.99,,,0.00,weatherlink.com 1.10,2013-01-26 12:31:00,
2013-01-26 07:46:00,18.7,17.0,30.39,North,351,0.0,-999.0,92,-99.99,,,0.00,weatherlink.com 1.10,2013-01-26 12:46:00,
2013-01-26 08:01:00,18.9,17.0,30.39,North,351,0.0,-999.0,92,-99.99,,,0.00,weatherlink.com 1.10,2013-01-26 13:01:00,
2013-01-26 08:16:00,19.6,18.0,30.40,North,351,0.0,-999.0,93,-99.99,,,0.00,weatherlink.com 1.10,2013-01-26 13:16:00,
2013-01-26 08:31:00,20.2,19.0,30.41,North,351,1.0,-999.0,93,-99.99,,,0.00,weatherlink.com 1.10,2013-01-26 13:31:00,
2013-01-26 08:46:00,20.9,19.0,30.41,North,351,0.0,-999.0,93,-99.99,,,0.00,weatherlink.com 1.10,2013-01-26 13:46:00,
2013-01-26 09:01:00,21.6,20.0,30.41,North,351,0.0,-999.0,93,-99.99,,,0.00,weatherlink.com 1.10,2013-01-26 14:01:00,
2013-01-26 09:16:00,22.6,21.0,30.42,North,351,0.0,-999.0,94,-99.99,,,0.00,weatherlink.com 1.10,2013-01-26 14:16:00,
2013-01-26 09:32:00,23.6,22.0,30.43,North,351,0.0,-999.0,94,-99.99,,,0.00,weatherlink.com 1.10,2013-01-26 14:32:00,
2013-01-26 09:47:00,24.8,23.0,30.43,North,351,2.0,-999.0,94,-99.99,,,0.00,weatherlink.com 1.10,2013-01-26 14:47:00,
2013-01-26 10:02:00,25.8,24.0,30.44,North,351,1.0,-999.0,94,-99.99,,,0.00,weatherlink.com 1.10,2013-01-26 15:02:00,
2013-01-26 10:17:00,26.7,25.0,30.45,North,351,0.0,-999.0,94,-99.99,,,0.00,weatherlink.com 1.10,2013-01-26 15:17:00,
2013-01-26 10:32:00,27.5,26.0,30.45,North,351,0.0,-999.0,94,-99.99,,,0.00,weatherlink.com 1.10,2013-01-26 15:32:00,
2013-01-26 10:47:00,28.3,27.0,30.45,North,351,0.0,-999.0,94,-99.99,,,0.00,weatherlink.com 1.10,2013-01-26 15:47:00,
2013-01-26 11:02:00,29.3,28.0,30.45,North,351,0.0,-999.0,94,-99.99,,,0.00,weatherlink.com 1.10,2013-01-26 16:02:00,
2013-01-26 11:17:00,30.4,29.0,30.45,North,351,0.0,-999.0,94,-99.99,,,0.00,weatherlink.com 1.10,2013-01-26 16:17:00,
2013-01-26 11:32:00,31.1,29.0,30.45,North,351,0.0,-999.0,93,-99.99,,,0.00,weatherlink.com 1.10,2013-01-26 16:32:00,
2013-01-26 11:47:00,31.7,30.0,30.45,North,351,0.0,-999.0,92,-99.99,,,0.00,weatherlink.com 1.10,2013-01-26 16:47:00,
2013-01-26 12:02:00,32.6,31.0,30.44,North,351,0.0,-999.0,92,-99.99,,,0.00,weatherlink.com 1.10,2013-01-26 17:02:00,
2013-01-26 12:17:00,33.5,31.0,30.44,North,351,0.0,-999.0,91,-99.99,,,0.00,weatherlink.com 1.10,2013-01-26 17:17:00,
2013-01-26 12:32:00,34.1,32.0,30.43,North,351,0.0,-999.0,91,-99.99,,,0.00,weatherlink.com 1.10,2013-01-26 17:32:00,
2013-01-26 12:47:00,34.8,33.0,30.42,North,351,0.0,-999.0,91,-99.99,,,0.00,weatherlink.com 1.10,2013-01-26 17:47:00,
2013-01-26 13:02:00,35.5,33.0,30.41,North,351,0.0,-999.0,90,-99.99,,,0.00,weatherlink.com 1.10,2013-01-26 18:02:00,
2013-01-26 13:17:00,35.8,32.0,30.41,North,351,0.0,-999.0,85,-99.99,,,0.00,weatherlink.com 1.10,2013-01-26 18:17:00,
2013-01-26 13:32:00,36.3,32.0,30.41,East,82,2.0,-999.0,83,-99.99,,,0.00,weatherlink.com 1.10,2013-01-26 18:32:00,
2013-01-26 13:47:00,36.7,32.0,30.41,SE,144,0.0,-999.0,82,-99.99,,,0.00,weatherlink.com 1.10,2013-01-26 18:47:00,
2013-01-26 14:02:00,37.3,32.0,30.41,SE,144,0.0,-999.0,82,-99.99,,,0.00,weatherlink.com 1.10,2013-01-26 19:02:00,
2013-01-26 14:17:00,37.8,32.0,30.40,SE,144,0.0,-999.0,81,-99.99,,,0.00,weatherlink.com 1.10,2013-01-26 19:17:00,
2013-01-26 14:32:00,38.3,32.0,30.40,SE,144,0.0,-999.0,79,-99.99,,,0.00,weatherlink.com 1.10,2013-01-26 19:32:00,
2013-01-26 14:47:00,38.4,32.0,30.40,SE,144,0.0,-999.0,78,-99.99,,,0.00,weatherlink.com 1.10,2013-01-26 19:47:00,
2013-01-26 15:03:00,38.7,32.0,30.40,SE,144,0.0,-999.0,78,-99.99,,,0.01,weatherlink.com 1.10,2013-01-26 20:03:00,
2013-01-26 15:18:00,39.1,32.0,30.40,SE,144,0.0,-999.0,76,-99.99,,,0.01,weatherlink.com 1.10,2013-01-26 20:18:00,
2013-01-26 15:33:00,39.5,33.0,30.41,SE,144,0.0,-999.0,76,-99.99,,,0.02,weatherlink.com 1.10,2013-01-26 20:33:00,
2013-01-26 15:48:00,39.7,33.0,30.41,SE,144,0.0,-999.0,76,-99.99,,,0.03,weatherlink.com 1.10,2013-01-26 20:48:00,
2013-01-26 16:03:00,39.8,33.0,30.42,SE,144,0.0,-999.0,76,-99.99,,,0.03,weatherlink.com 1.10,2013-01-26 21:03:00,
2013-01-26 16:18:00,40.0,34.0,30.43,SE,144,0.0,-999.0,78,-99.99,,,0.03,weatherlink.com 1.10,2013-01-26 21:18:00,
2013-01-26 16:33:00,39.5,34.0,30.43,SE,144,0.0,-999.0,79,-99.99,,,0.04,weatherlink.com 1.10,2013-01-26 21:33:00,
2013-01-26 16:48:00,39.1,33.0,30.43,SE,144,0.0,-999.0,78,-99.99,,,0.04,weatherlink.com 1.10,2013-01-26 21:48:00,
2013-01-26 17:03:00,38.2,32.0,30.43,SE,144,0.0,-999.0,78,-99.99,,,0.04,weatherlink.com 1.10,2013-01-26 22:03:00,
2013-01-26 17:18:00,36.9,32.0,30.44,SE,144,0.0,-999.0,81,-99.99,,,0.04,weatherlink.com 1.10,2013-01-26 22:18:00,
2013-01-26 17:33:00,35.9,31.0,30.45,WNW,284,2.0,-999.0,82,-99.99,,,0.04,weatherlink.com 1.10,2013-01-26 22:33:00,
2013-01-26 17:48:00,34.9,30.0,30.45,WNW,284,0.0,-999.0,82,-99.99,,,0.04,weatherlink.com 1.10,2013-01-26 22:48:00,
2013-01-26 18:03:00,33.5,29.0,30.45,NNW,341,1.0,-999.0,82,-99.99,,,0.04,weatherlink.com 1.10,2013-01-26 23:03:00,
2013-01-26 18:18:00,32.0,28.0,30.46,NNW,341,4.0,-999.0,86,-99.99,,,0.04,weatherlink.com 1.10,2013-01-26 23:18:00,
2013-01-26 18:33:00,31.5,28.0,30.46,NNW,341,0.0,-999.0,87,-99.99,,,0.04,weatherlink.com 1.10,2013-01-26 23:33:00,
2013-01-26 18:48:00,31.3,28.0,30.48,NNW,341,0.0,-999.0,88,-99.99,,,0.04,weatherlink.com 1.10,2013-01-26 23:48:00,
2013-01-26 19:03:00,30.9,28.0,30.48,NNW,341,0.0,-999.0,88,-99.99,,,0.04,weatherlink.com 1.10,2013-01-27 00:03:00,
2013-01-26 19:18:00,30.5,27.0,30.48,NNW,341,0.0,-999.0,88,-99.99,,,0.04,weatherlink.com 1.10,2013-01-27 00:18:00,
2013-01-26 19:33:00,30.2,27.0,30.49,NNW,341,0.0,-999.0,89,-99.99,,,0.04,weatherlink.com 1.10,2013-01-27 00:33:00,
2013-01-26 19:48:00,29.6,27.0,30.50,NNW,341,1.0,-999.0,89,-99.99,,,0.04,weatherlink.com 1.10,2013-01-27 00:48:00,
2013-01-26 20:03:00,28.9,26.0,30.51,NNW,341,0.0,-999.0,89,-99.99,,,0.04,weatherlink.com 1.10,2013-01-27 01:03:00,
2013-01-26 20:18:00,28.7,26.0,30.51,NNW,341,0.0,-999.0,90,-99.99,,,0.04,weatherlink.com 1.10,2013-01-27 01:18:00,
2013-01-26 20:33:00,28.3,26.0,30.52,NNW,341,0.0,-999.0,90,-99.99,,,0.04,weatherlink.com 1.10,2013-01-27 01:33:00,
2013-01-26 20:48:00,28.0,26.0,30.52,NNW,340,2.0,-999.0,90,-99.99,,,0.04,weatherlink.com 1.10,2013-01-27 01:48:00,
2013-01-26 21:03:00,27.8,25.0,30.52,NNW,340,0.0,-999.0,89,-99.99,,,0.04,weatherlink.com 1.10,2013-01-27 02:03:00,
2013-01-26 21:18:00,27.9,25.0,30.53,NNW,341,0.0,-999.0,90,-99.99,,,0.04,weatherlink.com 1.10,2013-01-27 02:18:00,
2013-01-26 21:33:00,27.8,25.0,30.53,NNW,341,0.0,-999.0,89,-99.99,,,0.04,weatherlink.com 1.10,2013-01-27 02:33:00,
2013-01-26 21:48:00,27.4,25.0,30.54,NNW,340,0.0,-999.0,89,-99.99,,,0.04,weatherlink.com 1.10,2013-01-27 02:48:00,
2013-01-26 22:02:00,26.9,24.0,30.55,NNW,340,0.0,-999.0,89,-99.99,,,0.04,weatherlink.com 1.10,2013-01-27 03:02:00,
2013-01-26 22:18:00,26.7,24.0,30.56,NNW,340,0.0,-999.0,90,-99.99,,,0.04,weatherlink.com 1.10,2013-01-27 03:18:00,
2013-01-26 22:33:00,26.6,24.0,30.56,NNW,340,0.0,-999.0,90,-99.99,,,0.04,weatherlink.com 1.10,2013-01-27 03:33:00,
2013-01-26 22:48:00,26.5,24.0,30.56,NNW,340,0.0,-999.0,90,-99.99,,,0.04,weatherlink.com 1.10,2013-01-27 03:48:00,
2013-01-26 23:03:00,26.5,24.0,30.56,NNW,341,0.0,-999.0,90,-99.99,,,0.04,weatherlink.com 1.10,2013-01-27 04:03:00,
2013-01-26 23:18:00,26.1,24.0,30.57,NNW,341,0.0,-999.0,90,-99.99,,,0.04,weatherlink.com 1.10,2013-01-27 04:18:00,
2013-01-26 23:33:00,25.7,23.0,30.58,NNW,341,0.0,-999.0,90,-99.99,,,0.04,weatherlink.com 1.10,2013-01-27 04:33:00,
2013-01-26 23:48:00,25.3,23.0,30.58,NNW,341,0.0,-999.0,90,-99.99,,,0.04,weatherlink.com 1.10,2013-01-27 04:48:00,